Tracking 35331 objects as of 16-Sep-2026
HD Live streaming from Space Station
objects crossing your sky now

STARLINK-38052

Track STARLINK-38052 now!
10-day predictions
STARLINK-38052 is classified as:


NORAD ID: 100016
Int'l Code: 2026-160R
Launch date: July 14, 2026
Source: United States (US)
Launch site: AIR FORCE WESTERN TEST RANGE (AFWTR)
Your satellite tracking list
Your tracking list is empty




NASA's NSSDC Master Catalog

Two Line Element Set (TLE):
1 A0016U 26160R   26259.30944390 -.00511212  00000-0 -68557-2 0  9995
2 A0016  70.0003 206.7057 0003858 289.4853  70.5921 15.59411904 11330
Source of the keplerian elements: AFSPC